Big Piney, WY

7:54 PM MDT on May 22, 2017 (GMT -0600)
Big Piney-Marbleton

Weather History for KBPI - April, 2013

Change the Weather History Date:

Friday, April 5, 2013

  Actual Average Record
Temperature  
Mean Temperature 37 °F 34 °F  
Max Temperature 50 °F 49 °F 63 °F (2004)
Min Temperature 23 °F 20 °F 8 °F (1983)
Degree Days  
Heating Degree Days 28 31  
Month to date heating degree days 126 156  
Since 1 July heating degree days 8108 8851  
Cooling Degree Days 0 0  
Month to date cooling degree days 0 0  
Year to date cooling degree days 0 0  
Moisture  
Dew Point 30 °F    
Average Humidity 65    
Maximum Humidity 92    
Minimum Humidity 37    
Precipitation  
Precipitation 0.02 in 0.02 in 0.14 in (2001)
Month to date precipitation 0.02 0.08  
Year to date precipitation 0.21 1.18  
Sea Level Pressure  
Sea Level Pressure 29.87 in    
Wind  
Wind Speed 8 mph (WNW)    
Max Wind Speed 28 mph    
Max Gust Speed 36 mph    
Visibility 9 miles    
Events Rain    
T = Trace of Precipitation, MM = Missing Value Source: NWS Daily Summary

Daily Weather History Graph

Daily Weather History Graph

Search for Another Location

Airport or City:

Trip Planner

Search our weather history database for the weather conditions in past years. The results will help you decide how hot, cold, wet, or windy it might be!

Date:

Astronomy

Apr. 05, 2013 Rise Set
Actual Time 6:55 AM MDT 7:51 PM MDT
Civil Twilight 6:26 AM MDT 8:20 PM MDT
Nautical Twilight 5:52 AM MDT 8:54 PM MDT
Astronomical Twilight 5:17 AM MDT 9:30 PM MDT
Moon 4:10 AM MDT (4/5) 3:13 PM MDT (4/5)
Length of Visible Light 13h 53m
Length of Day
12h 56m
Waning Crescent, 23% of the Moon is Illuminated
Apr 5
Waning Crescent
Apr 10
New
Apr 18
First Quarter
Apr 25
Full
May 2
Last Quarter

Hourly Weather History & Observations

Time (MDT) Temp. Windchill Dew Point Humidity Pressure Visibility Wind Dir Wind Speed Gust Speed Precip Events Conditions
12:53 AM 39.0 °F - 25.0 °F 57% 29.83 in 10.0 mi Calm Calm - N/A   Overcast
1:53 AM 41.0 °F - 26.1 °F 55% 29.79 in 10.0 mi Calm Calm - N/A   Overcast
2:53 AM 41.0 °F - 26.1 °F 55% 29.77 in 10.0 mi Calm Calm - N/A   Overcast
3:53 AM 41.0 °F 38.0 °F 26.1 °F 55% 29.75 in 10.0 mi ESE 4.6 mph - N/A   Overcast
4:53 AM 37.0 °F 34.5 °F 25.0 °F 62% 29.77 in 10.0 mi East 3.5 mph - N/A   Mostly Cloudy
5:53 AM 37.0 °F 34.5 °F 25.0 °F 62% 29.75 in 10.0 mi SW 3.5 mph - N/A   Partly Cloudy
6:53 AM 43.0 °F 36.8 °F 27.0 °F 53% 29.73 in 10.0 mi WNW 11.5 mph - N/A   Mostly Cloudy
7:53 AM 39.9 °F 33.9 °F 33.1 °F 77% 29.79 in 10.0 mi North 9.2 mph - N/A   Mostly Cloudy
8:50 AM 37.4 °F 34.9 °F 33.8 °F 87% 29.96 in 2.5 mi NW 3.5 mph - 0.01 in Rain Rain
8:53 AM 37.9 °F 35.5 °F 34.0 °F 86% 29.84 in 2.5 mi NNW 3.5 mph - 0.01 in Rain Rain
9:02 AM 37.4 °F - 35.6 °F 93% 29.96 in 5.0 mi Calm Calm - 0.01 in Rain Light Rain
9:35 AM 39.2 °F - 33.8 °F 81% 29.95 in 10.0 mi Calm Calm - 0.01 in Rain Light Rain
9:53 AM 39.9 °F - 35.1 °F 83% 29.84 in 10.0 mi Calm Calm - 0.01 in   Overcast
10:53 AM 39.9 °F - 36.0 °F 86% 29.85 in 10.0 mi Calm Calm - 0.00 in Rain Light Rain
11:25 AM 39.2 °F 37.0 °F 35.6 °F 87% 29.97 in 7.0 mi West 3.5 mph - 0.00 in Rain Light Rain
11:53 AM 41.0 °F 39.0 °F 37.0 °F 86% 29.85 in 10.0 mi SSW 3.5 mph - 0.00 in Rain Light Rain
12:02 PM 39.2 °F 35.9 °F 37.4 °F 93% 29.96 in 10.0 mi South 4.6 mph - 0.00 in Rain Light Rain
12:30 PM 41.0 °F 38.0 °F 37.4 °F 87% 29.95 in 10.0 mi South 4.6 mph - 0.00 in   Overcast
12:53 PM 42.1 °F 38.4 °F 37.9 °F 85% 29.84 in 10.0 mi South 5.8 mph - 0.00 in Rain Light Rain
1:03 PM 42.8 °F 39.3 °F 37.4 °F 81% 29.95 in 8.0 mi SSW 5.8 mph - 0.00 in Rain Light Rain
1:53 PM 45.0 °F 40.1 °F 37.9 °F 76% 29.81 in 10.0 mi WSW 9.2 mph - 0.00 in   Mostly Cloudy
2:53 PM 48.0 °F - 28.9 °F 48% 29.79 in 10.0 mi NW 23.0 mph 29.9 mph N/A   Mostly Cloudy
3:53 PM 46.9 °F - 21.9 °F 37% 29.80 in 10.0 mi NW 19.6 mph 27.6 mph N/A   Partly Cloudy
4:53 PM 48.0 °F - 25.0 °F 41% 29.83 in 10.0 mi WNW 21.9 mph 34.5 mph N/A   Partly Cloudy
5:53 PM 42.1 °F 32.6 °F 25.0 °F 51% 29.87 in 10.0 mi WNW 23.0 mph 33.4 mph N/A   Clear
6:53 PM 41.0 °F 33.1 °F 25.0 °F 53% 29.87 in 10.0 mi NW 15.0 mph - N/A   Partly Cloudy
7:53 PM 37.9 °F 30.9 °F 24.1 °F 57% 29.91 in 10.0 mi WNW 10.4 mph - N/A   Scattered Clouds
8:53 PM 34.0 °F 27.2 °F 24.1 °F 67% 29.95 in 10.0 mi NNE 8.1 mph - N/A   Scattered Clouds
9:53 PM 30.9 °F 22.8 °F 27.0 °F 85% 29.98 in 10.0 mi NE 9.2 mph - N/A   Clear
10:53 PM 30.0 °F - 26.1 °F 85% 30.01 in 10.0 mi Calm Calm - N/A   Clear
11:53 PM 25.0 °F 19.3 °F 23.0 °F 92% 30.03 in 10.0 mi WNW 4.6 mph - N/A   Clear